Location: Klein M�hlingen
(51.9472°N, 11.7453°E)
Time: 05:14:24
(UTC+00:00)

BREEZE-M DEB (TANK) - Pass Details

Date: 09 April 2020
Orbit: 321 x 11933 km, 49.7° (Epoch: 29 May)

Event Time Altitude Azimuth Distance (km) Brightness Sun altitude
Rises 18:25:13 0° 282° (WNW) 6,408 11.4 -4.4°
Reaches altitude 10° 18:31:06 10° 279° (W) 3,935 9.5 -5.2°
Maximum altitude 18:38:40 50° 207° (SSW) 863 4.5 -6.3°
Drops below altitude 10° 18:41:40 10° 129° (SE) 1,568 5.1 -6.8°
Enters shadow 18:41:54 - 127° (SE) 1,670 5.3 -6.8°
